Wind_Speed
15 16 24 33 40 45 46 46 46 48 52 58 67 75 83 92 102 110 114 115 113 110 107 103 99 95 91 87 83 78 73 71 69 65 64 63 60 59
12 10 17 25 33 39 43 44 44 45 48 54 61 69 76 84 93 103 110 113 113 111 109 105 101 97 94 90 87 82 76 71 68 66 66 65 63 61
10 5 10 18 26 33 38 40 42 42 44 50 56 63 69 77 86 95 103 109 111 111 110 107 103 100 96 93 89 84 80 75 70 69 66 63 62 62
9 3 6 13 19 26 32 36 38 40 41 46 52 58 64 71 78 87 96 103 108 110 110 108 105 101 98 95 92 87 82 78 72 68 67 64 64 63
9 2 4 9 15 22 27 31 34 37 39 42 48 53 59 65 72 80 88 97 103 107 109 108 106 102 100 96 93 91 86 82 76 68 66 63 61 62
10 4 3 8 13 18 23 27 31 33 36 40 44 50 55 61 66 73 81 91 97 103 106 107 106 103 100 97 93 91 89 85 79 73 67 63 59 58
11 5 2 6 11 15 20 24 27 30 33 37 42 46 52 57 62 68 76 84 92 98 103 105 104 102 99 96 94 91 89 86 81 75 70 65 59 56
12 7 3 5 9 13 17 21 24 27 30 35 39 44 49 54 58 64 71 80 87 94 99 102 102 100 98 94 93 91 89 85 82 79 73 68 63 58
14 8 4 4 7 11 15 19 21 24 27 32 37 41 46 52 55 60 66 74 82 89 94 98 100 99 97 93 91 89 88 85 82 79 75 71 65 61
17 10 6 3 6 9 13 17 20 22 26 30 35 39 44 49 53 57 62 68 77 84 90 93 96 94 93 90 88 86 84 83 80 78 75 71 67 60
21 14 8 4 4 7 11 15 17 21 24 29 33 38 42 47 51 54 58 64 72 78 84 89 91 91 88 87 86 83 80 81 79 76 73 70 67 61
25 18 11 6 3 5 9 13 15 19 23 27 32 36 41 45 49 52 55 60 67 74 79 85 87 87 84 82 81 81 79 78 77 75 71 68 65 61
30 22 15 8 4 3 7 10 14 17 21 26 30 35 40 44 47 50 52 56 61 68 74 79 83 84 82 80 78 78 78 77 76 73 71 67 65 63
34 27 18 11 5 2 5 9 13 16 20 24 29 33 38 43 45 48 50 52 56 62 70 75 80 82 80 78 77 76 74 74 73 72 70 68 66 63
36 30 23 15 8 2 4 8 12 15 19 23 28 32 37 41 44 47 48 50 53 57 64 72 74 77 78 76 75 75 73 73 72 70 69 67 65 63
38 33 27 19 11 5 1 6 10 14 19 23 27 31 36 40 43 45 47 48 50 54 60 66 69 73 75 74 73 73 73 72 72 70 68 65 63 61
39 35 30 23 15 8 2 4 9 13 18 22 26 30 35 39 41 44 46 47 48 51 54 60 64 68 71 73 71 70 70 70 70 69 68 66 65 64
41 36 32 26 19 12 5 2 7 12 16 21 25 29 33 37 40 42 44 46 47 49 51 55 60 64 67 69 70 68 68 67 68 68 67 67 65 63
41 38 33 28 22 15 8 1 6 11 15 19 23 28 32 36 39 41 43 45 46 48 49 52 55 60 63 64 68 69 68 67 67 68 68 67 65 63
40 39 35 29 24 18 11 3 4 10 14 18 22 27 31 34 37 40 42 44 46 47 48 50 52 56 60 62 64 66 67 66 66 66 67 68 66 64
38 38 37 32 26 20 14 7 2 8 13 17 21 25 29 33 36 38 41 43 44 46 48 49 50 53 56 60 61 62 64 66 66 65 65 66 66 64
36 37 37 35 30 23 16 9 2 6 12 16 21 25 28 32 34 37 39 40 42 44 46 48 49 51 55 58 59 61 62 65 67 66 65 64 63 62
35 36 36 36 33 27 19 12 4 4 10 16 20 24 27 30 33 35 37 38 40 42 44 47 49 51 53 57 59 59 60 62 64 65 64 64 63 63
Wind_Direction
303 256 231 223 221 221 221 221 221 224 225 222 219 217 216 215 213 211 209 208 208 208 209 210 210 211 212 212 214 216 217 218 221 223 225 224 225 225
325 266 230 220 217 217 218 219 219 221 224 223 219 216 215 214 213 212 209 208 207 207 208 209 210 210 211 211 213 215 216 218 219 222 223 224 226 225
345 285 226 215 213 214 215 217 218 219 222 222 219 216 214 214 213 212 210 208 207 207 207 208 209 210 211 211 212 214 216 217 218 220 221 221 222 224
358 326 213 208 210 211 213 215 217 218 220 221 219 215 213 212 211 211 210 208 207 206 207 208 209 210 211 211 212 213 215 217 218 220 221 220 220 222
5 5 201 202 206 209 211 214 216 217 218 219 219 215 212 211 210 210 210 208 207 206 206 207 208 210 211 211 212 212 214 217 218 218 220 219 220 221
4 360 216 204 205 208 211 213 215 217 217 217 217 214 211 209 208 208 208 208 206 206 206 206 208 209 211 212 212 213 214 217 218 219 220 220 220 220
1 347 266 214 209 211 212 213 214 215 215 215 215 213 210 207 206 206 207 207 206 205 205 206 207 209 210 213 213 213 214 217 219 221 222 221 222 223
360 349 302 235 219 216 214 213 212 214 213 213 213 211 208 205 204 204 205 206 205 204 204 205 207 208 210 212 213 214 215 217 219 221 223 224 224 225
0 350 322 255 229 221 215 211 211 212 212 211 211 210 207 203 202 202 203 204 205 203 204 204 206 209 210 212 215 215 215 217 219 221 224 225 227 228
5 356 338 286 240 224 216 211 210 211 210 209 209 207 205 202 200 200 201 202 204 204 203 204 205 207 209 211 215 216 216 217 219 220 223 225 227 227
9 4 351 320 256 223 213 210 209 209 208 207 206 205 202 200 198 198 199 201 202 203 202 202 203 204 206 210 213 215 216 217 217 219 221 224 226 226
10 8 5 351 291 227 213 208 207 205 204 204 203 202 200 198 196 196 197 199 201 202 202 201 201 202 203 207 210 212 214 216 216 218 219 221 222 222
13 10 6 360 335 238 210 205 204 202 201 200 200 199 198 197 195 195 196 197 199 201 202 201 201 200 202 203 207 210 212 214 215 217 218 218 219 221
15 14 11 5 351 260 208 202 201 199 198 197 197 197 196 195 195 194 195 196 198 200 201 201 202 201 201 202 206 208 210 213 214 215 216 217 218 219
16 16 15 12 8 336 211 200 198 197 196 195 195 195 194 194 194 194 194 195 196 198 200 201 203 203 202 203 206 209 210 211 212 213 214 215 216 217
16 17 17 16 13 10 220 200 197 196 194 193 193 193 192 193 193 193 194 194 195 196 199 201 203 204 204 204 204 207 210 211 212 211 212 213 214 215
16 16 18 18 18 19 35 188 192 193 193 192 192 192 191 191 192 193 194 194 194 195 198 201 202 202 203 203 203 203 207 209 210 211 213 214 214 214
16 16 17 19 20 21 27 160 186 190 192 192 192 191 191 191 191 192 193 194 194 195 197 199 201 202 203 204 204 204 205 208 209 210 212 213 214 214
16 16 16 17 20 21 23 86 183 188 190 192 191 191 190 190 190 191 192 193 194 194 195 198 200 202 203 205 206 206 206 207 209 211 212 213 214 216
15 16 16 17 18 19 21 35 176 187 190 191 192 191 191 190 190 191 192 193 194 195 195 196 198 201 203 205 207 208 208 208 209 211 213 214 214 215
14 16 16 17 17 17 18 24 145 185 189 190 191 192 191 191 191 191 192 193 194 195 196 197 198 199 200 203 206 208 209 209 209 210 212 214 215 216
13 14 16 16 16 15 15 15 27 187 190 191 191 192 192 192 192 192 193 193 195 196 197 197 198 199 200 202 204 206 208 210 211 212 211 212 214 216
11 12 14 14 15 15 13 11 359 202 194 193 193 193 194 193 193 193 194 194 195 196 198 198 198 198 199 201 203 205 207 209 210 212 213 213 214 215
Height
5271 5272 5276 5283 5292 5303 5314 5323 5332 5339 5347 5356 5367 5380 5395 5412 5431 5452 5475 5499 5522 5544 5565 5584 5602 5619 5636 5651 5666 5678 5689 5700 5711 5722 5732 5741 5750 5758
5271 5270 5273 5278 5286 5295 5305 5315 5324 5331 5338 5345 5356 5369 5383 5399 5417 5437 5459 5482 5505 5527 5548 5568 5587 5604 5621 5637 5652 5665 5677 5688 5699 5710 5721 5731 5740 5748
5272 5271 5273 5277 5283 5291 5300 5308 5317 5324 5331 5337 5347 5359 5373 5388 5405 5424 5444 5466 5489 5511 5532 5552 5572 5589 5606 5622 5638 5653 5666 5677 5687 5699 5709 5719 5729 5739
5276 5274 5275 5278 5283 5289 5296 5303 5311 5318 5325 5331 5339 5351 5364 5378 5395 5412 5431 5452 5474 5496 5517 5538 5557 5575 5592 5608 5625 5640 5653 5665 5677 5688 5699 5709 5718 5728
5280 5278 5278 5280 5283 5288 5293 5299 5306 5313 5320 5326 5333 5344 5356 5370 5385 5402 5420 5440 5460 5481 5503 5523 5543 5561 5578 5595 5611 5627 5642 5655 5667 5677 5687 5697 5707 5717
5284 5282 5281 5282 5284 5288 5292 5297 5303 5309 5315 5322 5329 5338 5350 5363 5378 5393 5410 5428 5448 5469 5490 5510 5529 5547 5565 5583 5601 5616 5629 5641 5654 5666 5677 5687 5697 5706
5287 5285 5284 5284 5285 5288 5291 5295 5300 5306 5312 5318 5325 5334 5344 5357 5371 5385 5401 5419 5437 5457 5478 5498 5518 5538 5554 5570 5585 5601 5616 5630 5643 5655 5666 5677 5687 5697
5290 5288 5286 5286 5286 5288 5290 5294 5298 5303 5309 5314 5321 5329 5340 5352 5365 5379 5394 5410 5429 5449 5469 5488 5506 5525 5542 5558 5574 5590 5605 5619 5632 5645 5657 5667 5678 5687
5292 5289 5287 5287 5287 5288 5290 5293 5297 5301 5306 5312 5319 5326 5336 5348 5360 5374 5387 5403 5421 5439 5459 5478 5496 5514 5531 5548 5562 5578 5594 5609 5622 5635 5647 5658 5669 5679
5294 5290 5288 5287 5287 5287 5289 5292 5295 5299 5304 5310 5316 5324 5333 5343 5356 5369 5382 5397 5414 5431 5449 5468 5486 5504 5522 5538 5553 5567 5583 5598 5612 5625 5638 5649 5660 5671
5296 5292 5289 5287 5287 5287 5288 5291 5294 5298 5302 5308 5314 5321 5330 5340 5352 5365 5378 5392 5407 5423 5439 5459 5477 5495 5512 5528 5542 5557 5572 5587 5602 5615 5628 5640 5651 5662
5299 5294 5291 5288 5287 5287 5288 5291 5293 5297 5301 5306 5312 5319 5328 5338 5349 5362 5374 5387 5401 5417 5432 5450 5467 5485 5502 5517 5532 5547 5561 5576 5591 5605 5618 5630 5642 5653
5303 5297 5293 5290 5288 5288 5289 5290 5293 5296 5300 5305 5311 5318 5326 5336 5347 5359 5371 5383 5396 5411 5426 5442 5458 5475 5492 5508 5522 5536 5552 5566 5581 5595 5608 5621 5632 5644
5307 5300 5295 5292 5290 5289 5289 5291 5293 5296 5300 5304 5310 5316 5324 5334 5345 5356 5368 5380 5392 5405 5419 5435 5451 5467 5483 5498 5513 5527 5542 5557 5571 5586 5599 5611 5623 5634
5312 5304 5298 5294 5291 5290 5290 5291 5293 5296 5299 5304 5309 5316 5323 5332 5343 5354 5365 5377 5388 5401 5414 5429 5444 5459 5475 5490 5504 5519 5533 5547 5562 5576 5589 5601 5613 5625
5316 5309 5302 5297 5294 5292 5291 5292 5294 5296 5299 5304 5309 5315 5322 5331 5341 5351 5362 5373 5385 5397 5409 5423 5436 5451 5467 5481 5495 5509 5524 5538 5553 5566 5579 5591 5603 5615
5321 5313 5306 5300 5296 5294 5293 5293 5294 5297 5300 5304 5309 5315 5322 5330 5339 5349 5360 5370 5382 5393 5405 5417 5430 5444 5458 5473 5486 5500 5515 5529 5543 5556 5569 5581 5593 5605
5325 5317 5310 5304 5300 5297 5295 5295 5296 5298 5301 5305 5309 5315 5322 5329 5338 5347 5357 5367 5378 5389 5400 5412 5424 5437 5450 5464 5477 5491 5505 5519 5533 5546 5559 5572 5583 5595
5330 5322 5315 5309 5304 5300 5297 5297 5297 5299 5302 5305 5310 5315 5321 5329 5337 5345 5355 5365 5375 5385 5396 5407 5418 5431 5444 5457 5470 5483 5497 5510 5523 5536 5549 5562 5574 5586
5335 5327 5319 5313 5307 5303 5300 5299 5299 5300 5303 5306 5310 5315 5321 5328 5335 5344 5352 5362 5371 5381 5392 5402 5413 5425 5437 5450 5463 5475 5487 5501 5514 5526 5538 5551 5563 5575
5339 5331 5324 5317 5311 5306 5303 5301 5300 5301 5303 5306 5311 5315 5321 5327 5334 5342 5350 5359 5368 5378 5388 5398 5408 5419 5430 5442 5454 5466 5479 5491 5504 5517 5529 5542 5554 5566
5343 5335 5328 5320 5314 5309 5305 5302 5302 5302 5304 5307 5310 5315 5321 5327 5333 5340 5348 5356 5365 5373 5383 5392 5402 5413 5423 5435 5446 5458 5470 5482 5494 5507 5520 5533 5546 5559
5345 5338 5331 5324 5317 5311 5307 5304 5302 5302 5304 5306 5310 5314 5320 5325 5331 5338 5345 5353 5361 5369 5378 5387 5396 5406 5416 5427 5438 5450 5462 5473 5485 5497 5509 5522 5534 5545